Zurück zum Katalog

STARLINK-33898

AktivKommunikationVLEO
NORAD 64002·PAYLOAD·🇺🇸 United States

Gestartet May 14, 2025 von Cape Canaveral Space Force Station

Loading…

Nächste Überflüge (nächste 24 Stunden)

TLE

AktuellSource: CelesTrak SupGP

Epoche: Sep 15, 2026, 02:23 UTC

1 64002C 25101J   26258.09979167  .00007142  00000+0  25902-3 0  2584
2 64002  43.0016   8.6165 0001622 269.0631 288.5821 15.27531901    11

Verfolge STARLINK-33898 in Echtzeit mit AllMySat

Download on the App Store